Weather in Molodizhne

Ukraine / Kirovohrad Region     48°10′44″N   32°39′38″E
temp.,
°C
wind,
m/s
gust,
m/s
humid.,
%
clouds,
%
prec.,
mm/h
press.,
hPa
HPBL,
m
18 april, sun
sun1800:00+7nnw1172100 0.0 101918
03:00+6n117893 0.0 101910
06:00+5s018366 0.0 101910
09:00+9nw116739 0.0 1018436
12:00+12wsw235287 0.0 10181582
15:00+13wnw3448100 0.0 10171660
18:00+13nnw3454100 0.0 1016658
21:00+10n2261100 0.0 101722
19 april, mon
mon1900:00+8nne3577100 0.0 1018116
03:00+7ne3482100 0.0 101792
06:00+6ne349398 0.0 101796
09:00+8nne3377100 0.0 1017352
12:00+12nne226285 0.0 1016885
15:00+14n325394 0.3 10151519
18:00+14ne224993 0.1 10141404
21:00+10ne476199 0.1 1014177
20 april, tue
tue2000:00+9ene51169100 0.0 1013291
03:00+8ne61273100 0.0 1010369
06:00+8ne61372100 0.0 1008435
09:00+8ne71278100 0.4 1006579
12:00+9nne81284100 1.6 1003700
15:00+8n91390100 5.5 10011164
18:00+8n71289100 1.5 10021254
21:00+9nw81484100 2.0 1004755
21 april, wed
wed2100:00+8wnw7138269 0.0 1007677
03:00+7wnw61184100 0.0 1009551
06:00+4w51091100 0.0 1012286
09:00+8wnw676772 0.0 10141038
12:00+9wnw5757100 0.0 10161397
15:00+13wnw474586 0.0 10152014
18:00+13wnw235496 0.0 1016150
21:00+9ssw487796 0.0 1018144
22 april, thu
thu2200:00+8sw51089100 0.3 1018282
03:00+7ssw479065 0.3 1018188
06:00+6s489559 0.0 1019182
09:00+11ssw587617 0.0 1019607
12:00+15ssw555897 0.8 10191377
15:00+15ssw6756100 2.9 10181537
18:00+14ssw576692 1.4 1018963
21:00+10ssw5118253 1.6 1019262